Observations for Trim Patrick St
| Time | AQI | Temp °C | Hum % | Pres Pa | CO μg/m³ | H₂S μg/m³ | NO μg/m³ | NO₂ μg/m³ | O₃ μg/m³ | SO₂ μg/m³ | PM1 μg/m³ | PM2.5 μg/m³ | PM10 μg/m³ |
|---|---|---|---|---|---|---|---|---|---|---|---|---|---|
| Thursday 27 August 2026 | |||||||||||||
| 21:00 | 3 | 18 | 85 | 38,460 | 0.07 | 3.65 | 1.46 | 14.3 | 40.54 | 0.15 | 18.29 | 26.99 | 29.68 |
| 20:59 | 3 | 18.1 | 85 | 38,460 | 0.06 | 3.91 | 1.2 | 14.17 | 46.83 | 0.19 | 20 | 26.3 | 27.26 |
| 20:58 | 3 | 18.1 | 85 | 38,460 | 0.06 | 4.2 | 1.3 | 16.23 | 38.36 | 0.75 | 18.29 | 27.68 | 30.44 |
| 20:57 | 3 | 18.1 | 85 | 38,460 | 0.08 | 4.02 | 1.24 | 14.98 | 39.06 | 0.94 | 18.29 | 25.61 | 28.17 |
| 20:56 | 3 | 18.1 | 85 | 38,460 | 0.06 | 4.17 | 1.34 | 16.2 | 36.49 | 1.08 | 18.29 | 27 | 29.7 |
| 20:55 | 3 | 18.1 | 85 | 38,460 | 0.07 | 4.49 | 9.53 | 18.67 | 36.85 | 1.28 | 19.14 | 26.31 | 28.94 |
| 20:54 | 3 | 18.1 | 85 | 38,460 | 0.08 | 4.25 | 10.59 | 23.12 | 31.29 | 0.95 | 20 | 27.69 | 30.46 |
| 20:53 | 3 | 18.1 | 85 | 38,460 | 0.08 | 5.54 | 11.85 | 37.52 | 23.71 | 2.25 | 19.14 | 27.69 | 30.46 |
| 20:52 | 3 | 18.1 | 85 | 38,460 | 0.11 | 7.95 | 12 | 56.56 | 6.94 | 10.64 | 20 | 27.7 | 30.47 |
| 20:51 | 3 | 18.1 | 85 | 38,460 | 0.07 | 7.42 | 9.44 | 30.89 | 38.7 | 0 | 20 | 28.39 | 31.23 |
| 20:50 | 3 | 18.2 | 84 | 38,460 | 0.07 | 5.14 | 1.08 | 20.98 | 35.89 | 0.62 | 17.43 | 26.33 | 28.97 |
| 20:48 | 3 | 18.2 | 84 | 38,460 | 0.06 | 4.49 | 1.12 | 20.01 | 38.75 | 0.48 | 20 | 27.04 | 29.74 |
| 20:47 | 3 | 18.2 | 84 | 38,460 | 0.07 | 5.4 | 1.03 | 25.63 | 34.78 | 0.27 | 19.14 | 26.35 | 28.98 |
| 20:45 | 3 | 18.2 | 84 | 38,460 | 0.06 | 5.01 | 1.48 | 20.48 | 35.89 | 1.01 | 19.14 | 27.05 | 29.76 |
| 20:44 | 3 | 18.2 | 84 | 38,460 | 0.07 | 5.43 | 1.34 | 18.72 | 38.04 | 1.45 | 17.43 | 25.67 | 28.24 |
| 20:43 | 3 | 18.2 | 84 | 38,460 | 0.09 | 6.45 | 3.56 | 29.71 | 28.5 | 1.47 | 18.29 | 28.43 | 31.28 |
| 20:42 | 3 | 18.2 | 84 | 38,460 | 0.07 | 7.47 | 3.29 | 39.93 | 27.77 | 0.01 | 20.86 | 29.14 | 29.41 |
| 20:40 | 3 | 18.3 | 84 | 38,460 | 0.09 | 7.24 | 3.38 | 45.66 | 16.49 | 5.07 | 19.14 | 27.08 | 29.79 |
| 20:37 | 3 | 18.3 | 84 | 38,460 | 0.06 | 4.59 | 1.29 | 16.67 | 41.7 | 0.9 | 19.14 | 26.43 | 29.07 |
| 20:36 | 3 | 18.3 | 84 | 38,460 | 0.05 | 4.35 | 1.17 | 16.04 | 42.88 | 0.7 | 19.14 | 28.5 | 31.35 |